Weather Roundup
Issued by NWS Springfield, MO

Home | Current Version | Previous Version | Text Only | Print | Product List | Glossary On
Versions: 1 2 3 4 5 6 7 8 9 10 11 12 13 14 15 16 17 18 19 20 21 22 23 24 25 26 27 28 29 30 31 32 33 34 35 36 37 38 39 40 41 42 43 44 45 46 47 48 49 50
000
NZUS99 KSGF 032210
HRRSGF

HOURLY WEATHER
NATIONAL WEATHER SERVICE SPRINGFIELD MO
500 PM CDT MON AUG 03 2015

......SGF CWA......

CITY           SKY/WX    TMP DP  RH WIND       PRES   REMARKS
SPRINGFIELD    MOSUNNY   91  64  40 SW8       29.95F HX  92
JOPLIN         MOSUNNY   94  64  37 SW7       29.94S HX  95
WEST PLAINS    MOSUNNY   91  65  41 NW7       29.97F HX  93
ROLLA          MOSUNNY   88  68  51 NW10      29.94F HX  91
OSAGE BEACH    MOSUNNY   90  72  55 NE8       29.94F HX  96
BRANSON        PTSUNNY   93  66  40 NW6       29.98S HX  96

......SURROUNDING SGF CWA......

CITY           SKY/WX    TMP DP  RH WIND       PRES   REMARKS
CHANUTE        MOSUNNY   93  66  40 S9        29.91F HX  96
PARSONS        MOSUNNY   91  68  46 VRB6      29.93F HX  95
COFFEYVILLE    PTSUNNY   93  64  38 S8        29.91F HX  94
EMPORIA        MOSUNNY   92  66  42 SW5       29.91F HX  94
GROVE OK       PTSUNNY   91  64  40 S7        29.95S HX  93
ROGERS AR      PTSUNNY   92  65  40 S6        29.98S HX  94
SILOAM SPRINGS PTSUNNY   90  63  40 SW7       29.96F HX  90
HARRISON AR    PTSUNNY   90  68  48 NW3       29.97F HX  94
NEAR YELLVILLE MOSUNNY   93  66  40 NE5       29.92F HX  96

......KANSAS AND MISSOURI......

CITY           SKY/WX    TMP DP  RH WIND       PRES   REMARKS
KANSAS CTY INT MOSUNNY   85  68  56 E10       29.92F
DOWNTOWN KC    SUNNY     86  69  56 E9        29.90F HX  90
COLUMBIA       SUNNY     87  68  52 W6        29.93F HX  90
SEDALIA        SUNNY     87  68  52 CALM      29.94F HX  90
ST JOSEPH      MOSUNNY   83  71  67 SE8       29.91F
ST LOUIS       PTSUNNY   90  68  48 N12       29.91F HX  94
SPIRIT OF STL  PTSUNNY   89  68  49 W8        29.89F HX  93
KIRKSVILLE     MOSUNNY   77  64  64 W7        29.95F
WICHITA        PTSUNNY   92  71  50 SE13      29.91F HX  98
TOPEKA         SUNNY     93  68  43 S8        29.89S HX  97
OLATHE         MOSUNNY   91  73  55 E6        29.90F HX  99

......TENNESSEE......

CITY           SKY/WX    TMP DP  RH WIND       PRES   REMARKS
MEMPHIS        PTSUNNY   97  68  38 NW10      29.92S HX 102
NASHVILLE      MOSUNNY   94  63  35 W9        29.91S HX  95

......ARKANSAS.......

CITY           SKY/WX    TMP DP  RH WIND       PRES   REMARKS
FAYETTEVILLE   PTSUNNY   86  69  56 SW6       29.97F HX  90
FT SMITH       CLOUDY    91  63  39 NE7       29.91F HX  92
LITTLE ROCK    PTSUNNY   93  65  39 S7        29.91F HX  95

......OKLAHOMA.......

CITY           SKY/WX    TMP DP  RH WIND       PRES   REMARKS
TULSA          PTSUNNY   93  69  45 E8        29.90F HX  98
PONCA CITY     PTSUNNY   92  68  45 SE10      29.90F HX  96
MCALESTER      PTSUNNY   96  60  30 VRB3      29.91F HX  96
OKLAHOMA CITY  PTSUNNY   83  68  60 SE8       29.93F

......IOWA............

CITY           SKY/WX    TMP DP  RH WIND       PRES   REMARKS
DES MOINES     MOSUNNY   84  57  39 NW8       29.93F
QUAD CITIES    SUNNY     82  54  37 NW12      29.90F

......ILLINOIS........

CITY           SKY/WX    TMP DP  RH WIND       PRES   REMARKS
QUINCY         MOSUNNY   82  63  52 CALM      29.91F
CHICAGO        MOSUNNY   81  48  31 NW13G23   29.85S




USA.gov is the U.S. government's official web portal to all federal, state and local government web resources and services.